• In Hungary
  • List of Countries
  • For 7 days
  • Water Temperature
  • Satellite Maps
  • Weather Map
  • News
  • Weather Widgets
  • user-avatar
    Login

    Hourly Weather Wrzaca

    Today, 21 November, Tuesday

    Time Temperature Precipitation Wind Pressure Humidity
    00:00 +2°C° 0 mm 1 mps 754 mmHg 82%
    01:00 -1°C° 0 mm 2 mps 754 mmHg 83%
    02:00 -1°C° 0 mm 2 mps 754 mmHg 84%
    03:00 -1°C° 0 mm 2 mps 754 mmHg 85%
    04:00 -1°C° 0 mm 2 mps 754 mmHg 86%
    05:00 -1°C° 0 mm 2 mps 754 mmHg 87%
    06:00 -1°C° 0 mm 2 mps 754 mmHg 88%
    07:00 -1°C° 0 mm 2 mps 754 mmHg 89%
    08:00 +1°C° 0 mm 2 mps 754 mmHg 87%
    09:00 +1°C° 0 mm 2 mps 754 mmHg 85%
    10:00 +2°C° 0 mm 2 mps 754 mmHg 84%
    11:00 +3°C° 0 mm 2 mps 754 mmHg 82%
    12:00 +3°C° 0 mm 2 mps 754 mmHg 81%
    13:00 +4°C° 0 mm 2 mps 754 mmHg 80%
    14:00 +3°C° 0 mm 2 mps 754 mmHg 83%
    15:00 +3°C° 0 mm 2 mps 754 mmHg 87%
    16:00 +3°C° 0 mm 1 mps 754 mmHg 90%
    17:00 +2°C° 0 mm 2 mps 754 mmHg 90%
    18:00 +1°C° 0 mm 2 mps 754 mmHg 91%
    19:00 +1°C° 0 mm 2 mps 754 mmHg 91%
    20:00 +1°C° 0 mm 2 mps 754 mmHg 91%
    21:00 +1°C° 0 mm 2 mps 754 mmHg 91%
    22:00 +1°C° 0 mm 2 mps 755 mmHg 91%
    23:00 0°C° 0 mm 3 mps 754 mmHg 91%

    Tomorrow, 22 November, Wednesday

    Time Temperature Precipitation Wind Pressure Humidity
    00:00 0°C° 0 mm 3 mps 754 mmHg 91%
    01:00 0°C° 0 mm 3 mps 754 mmHg 91%
    02:00 -1°C° 0 mm 4 mps 754 mmHg 90%
    03:00 -1°C° 0 mm 4 mps 754 mmHg 90%
    04:00 0°C° 0 mm 5 mps 753 mmHg 89%
    05:00 0°C° 0.4 mm 5 mps 753 mmHg 88%
    06:00 -1°C° 0.4 mm 6 mps 752 mmHg 87%
    07:00 -1°C° 0.4 mm 7 mps 752 mmHg 86%
    08:00 0°C° 0.8 mm 7 mps 752 mmHg 86%
    09:00 0°C° 0.8 mm 7 mps 752 mmHg 87%
    10:00 0°C° 0.8 mm 7 mps 751 mmHg 88%
    11:00 +1°C° 0.5 mm 6 mps 751 mmHg 89%
    12:00 +1°C° 0.5 mm 6 mps 751 mmHg 91%
    13:00 +2°C° 0.5 mm 6 mps 751 mmHg 92%
    14:00 +2°C° 0.2 mm 5 mps 751 mmHg 93%
    15:00 +2°C° 0.2 mm 5 mps 751 mmHg 94%
    16:00 +3°C° 0.2 mm 5 mps 751 mmHg 95%
    17:00 +3°C° 0.3 mm 5 mps 751 mmHg 95%
    18:00 +3°C° 0.3 mm 5 mps 751 mmHg 95%
    19:00 +5°C° 0.3 mm 5 mps 751 mmHg 95%
    20:00 +5°C° 0.1 mm 5 mps 751 mmHg 95%
    21:00 +5°C° 0.1 mm 5 mps 752 mmHg 95%
    22:00 +5°C° 0.1 mm 5 mps 752 mmHg 94%
    23:00 +5°C° 0 mm 5 mps 752 mmHg 94%

    Day after tomorrow, 23 November, Thursday

    Time Temperature Precipitation Wind Pressure Humidity
    00:00 +5°C° 0 mm 5 mps 752 mmHg 94%
    01:00 +3°C° 0 mm 5 mps 752 mmHg 93%
    02:00 +3°C° 0 mm 6 mps 752 mmHg 92%
    03:00 +3°C° 0 mm 6 mps 752 mmHg 92%
    04:00 +3°C° 0 mm 6 mps 752 mmHg 91%
    05:00 +3°C° 0 mm 6 mps 752 mmHg 89%
    06:00 +3°C° 0 mm 7 mps 751 mmHg 87%
    07:00 +3°C° 0 mm 7 mps 751 mmHg 85%
    08:00 +3°C° 0 mm 7 mps 751 mmHg 81%
    09:00 +4°C° 0 mm 7 mps 752 mmHg 76%
    10:00 +4°C° 0 mm 8 mps 752 mmHg 72%
    11:00 +5°C° 0 mm 7 mps 752 mmHg 71%
    12:00 +6°C° 0 mm 7 mps 752 mmHg 69%
    13:00 +6°C° 0 mm 7 mps 752 mmHg 67%
    14:00 +6°C° 0 mm 7 mps 752 mmHg 70%
    15:00 +7°C° 0 mm 6 mps 752 mmHg 73%
    16:00 +7°C° 0 mm 6 mps 752 mmHg 76%
    17:00 +7°C° 0 mm 6 mps 753 mmHg 78%
    18:00 +7°C° 0 mm 6 mps 753 mmHg 81%
    19:00 +7°C° 0 mm 6 mps 753 mmHg 83%
    20:00 +7°C° 0 mm 6 mps 754 mmHg 85%
    21:00 +7°C° 0 mm 6 mps 754 mmHg 87%
    22:00 +7°C° 0 mm 6 mps 754 mmHg 89%
    23:00 +7°C° 0 mm 6 mps 755 mmHg 89%

    24 November, Friday

    Time Temperature Precipitation Wind Pressure Humidity
    00:00 +7°C° 0 mm 6 mps 755 mmHg 90%
    01:00 +7°C° 0 mm 6 mps 755 mmHg 91%
    02:00 +7°C° 0 mm 6 mps 755 mmHg 91%
    03:00 +7°C° 0 mm 5 mps 755 mmHg 92%
    04:00 +7°C° 0 mm 5 mps 755 mmHg 93%
    05:00 +6°C° 0 mm 5 mps 755 mmHg 93%
    06:00 +5°C° 0 mm 6 mps 755 mmHg 93%
    07:00 +5°C° 0 mm 6 mps 756 mmHg 94%
    08:00 +7°C° 0 mm 6 mps 756 mmHg 92%
    09:00 +7°C° 0 mm 6 mps 756 mmHg 91%
    10:00 +8°C° 0 mm 6 mps 756 mmHg 89%
    11:00 +8°C° 0 mm 6 mps 756 mmHg 87%
    12:00 +9°C° 0 mm 6 mps 756 mmHg 85%
    13:00 +9°C° 0 mm 6 mps 756 mmHg 83%
    14:00 +9°C° 0 mm 6 mps 756 mmHg 85%
    15:00 +9°C° 0 mm 6 mps 755 mmHg 86%
    16:00 +8°C° 0 mm 6 mps 755 mmHg 88%
    17:00 +9°C° 0 mm 6 mps 755 mmHg 86%
    18:00 +9°C° 0 mm 6 mps 755 mmHg 85%
    19:00 +9°C° 0 mm 6 mps 755 mmHg 84%
    20:00 +9°C° 0 mm 7 mps 755 mmHg 82%
    21:00 +9°C° 0 mm 7 mps 755 mmHg 80%
    22:00 +9°C° 0 mm 7 mps 755 mmHg 79%
    23:00 +9°C° 0 mm 6 mps 755 mmHg 79%

    25 November, Saturday

    Time Temperature Precipitation Wind Pressure Humidity
    00:00 +8°C° 0 mm 6 mps 755 mmHg 79%
    01:00 +8°C° 0 mm 6 mps 755 mmHg 79%
    02:00 +8°C° 0 mm 6 mps 755 mmHg 78%
    03:00 +8°C° 0 mm 6 mps 755 mmHg 77%
    04:00 +8°C° 0 mm 6 mps 755 mmHg 76%
    05:00 +8°C° 0 mm 7 mps 755 mmHg 76%
    06:00 +8°C° 0 mm 7 mps 754 mmHg 77%
    07:00 +8°C° 0 mm 7 mps 754 mmHg 78%
    08:00 +8°C° 0 mm 7 mps 754 mmHg 75%
    09:00 +9°C° 0 mm 7 mps 754 mmHg 72%
    10:00 +10°C° 0 mm 7 mps 754 mmHg 69%
    11:00 +10°C° 0 mm 7 mps 753 mmHg 67%
    12:00 +10°C° 0 mm 7 mps 753 mmHg 64%
    13:00 +11°C° 0 mm 7 mps 752 mmHg 61%
    14:00 +11°C° 0 mm 7 mps 752 mmHg 61%
    15:00 +10°C° 0 mm 8 mps 751 mmHg 61%
    16:00 +10°C° 0 mm 8 mps 751 mmHg 61%
    17:00 +10°C° 0.1 mm 8 mps 750 mmHg 62%
    18:00 +10°C° 0.1 mm 9 mps 750 mmHg 62%
    19:00 +9°C° 0.1 mm 10 mps 749 mmHg 63%
    20:00 +9°C° 0.3 mm 10 mps 749 mmHg 66%
    21:00 +9°C° 0.3 mm 10 mps 749 mmHg 69%
    22:00 +9°C° 0.3 mm 10 mps 749 mmHg 72%
    23:00 +8°C° 0.2 mm 10 mps 749 mmHg 70%

    26 November, Sunday

    Time Temperature Precipitation Wind Pressure Humidity
    00:00 +8°C° 0.2 mm 11 mps 749 mmHg 69%
    01:00 +8°C° 0.2 mm 11 mps 749 mmHg 67%
    02:00 +7°C° 0 mm 11 mps 749 mmHg 66%
    03:00 +6°C° 0 mm 10 mps 750 mmHg 65%
    04:00 +5°C° 0 mm 10 mps 750 mmHg 63%
    05:00 +5°C° 0.1 mm 9 mps 751 mmHg 68%
    06:00 +5°C° 0.1 mm 8 mps 751 mmHg 72%
    07:00 +4°C° 0.1 mm 7 mps 752 mmHg 77%
    08:00 +4°C° 0 mm 8 mps 753 mmHg 73%
    09:00 +5°C° 0 mm 9 mps 754 mmHg 70%
    10:00 +5°C° 0 mm 9 mps 755 mmHg 67%
    11:00 +5°C° 0.1 mm 9 mps 755 mmHg 66%
    12:00 +5°C° 0.1 mm 10 mps 755 mmHg 65%
    13:00 +5°C° 0.1 mm 10 mps 756 mmHg 64%
    14:00 +3°C° 0.1 mm 10 mps 756 mmHg 65%
    15:00 +3°C° 0.1 mm 10 mps 756 mmHg 65%
    16:00 +2°C° 0.1 mm 10 mps 756 mmHg 65%
    17:00 +2°C° 0.1 mm 10 mps 756 mmHg 66%
    18:00 +2°C° 0.1 mm 10 mps 756 mmHg 67%
    19:00 +2°C° 0.1 mm 10 mps 756 mmHg 68%
    20:00 +2°C° 0.1 mm 11 mps 756 mmHg 69%
    21:00 +2°C° 0.1 mm 11 mps 756 mmHg 69%
    22:00 +2°C° 0.1 mm 11 mps 756 mmHg 70%
    23:00 +2°C° 0.1 mm 11 mps 756 mmHg 71%
    Show more